Terug naar catalogus

EKRAN 4

ActiefCommunicatieGEO
NORAD 11561·PAYLOAD·🇷🇺 Russia

Gelanceerd Oct 3, 1979 vanaf Baikonur Cosmodrome

Loading…

TLE

VersSource: Space-Track

Epoch: Sep 14, 2026, 14:13 UTC

1 11561U 79087A   26257.59286775 -.00000227  00000-0  00000-0 0  9998
2 11561   5.3777 283.8696 0010571 228.9114 143.5562  1.00233462 48276

Volg EKRAN 4 in realtime met AllMySat

Download on the App Store